When you browse on this site, cookies collect data to enhance your experience and personalize the content and advertising you see.
Visit our Privacy Policy to learn more. By continuing to use the site, you agree to this use of cookies and data.

Hourly Weather La Rioja

Today, 12 August, Wednesday

Time Temperature Precipitation Wind Pressure Humidity
00:00 +8°C° 0 mm 1 mps 714 mmHg 34%
01:00 +7°C° 0 mm 1 mps 714 mmHg 36%
02:00 +7°C° 0 mm 1 mps 714 mmHg 37%
03:00 +6°C° 0 mm 1 mps 714 mmHg 38%
04:00 +6°C° 0 mm 1 mps 713 mmHg 39%
05:00 +6°C° 0 mm 1 mps 713 mmHg 40%
06:00 +6°C° 0 mm 1 mps 713 mmHg 38%
07:00 +6°C° 0 mm 2 mps 714 mmHg 36%
08:00 +7°C° 0 mm 2 mps 714 mmHg 33%
09:00 +9°C° 0 mm 2 mps 714 mmHg 30%
10:00 +12°C° 0 mm 2 mps 713 mmHg 27%
11:00 +13°C° 0 mm 2 mps 713 mmHg 24%
12:00 +14°C° 0 mm 2 mps 712 mmHg 22%
13:00 +15°C° 0 mm 2 mps 711 mmHg 21%
14:00 +16°C° 0 mm 2 mps 711 mmHg 20%
15:00 +16°C° 0 mm 2 mps 710 mmHg 20%
16:00 +16°C° 0 mm 2 mps 710 mmHg 21%
17:00 +16°C° 0 mm 2 mps 710 mmHg 21%
18:00 +14°C° 0 mm 1 mps 710 mmHg 24%
19:00 +12°C° 0 mm 1 mps 711 mmHg 27%
20:00 +10°C° 0 mm 1 mps 711 mmHg 31%
21:00 +10°C° 0 mm 1 mps 711 mmHg 31%
22:00 +10°C° 0 mm 1 mps 711 mmHg 31%
23:00 +9°C° 0 mm 1 mps 711 mmHg 32%

Tomorrow, 13 August, Thursday

Time Temperature Precipitation Wind Pressure Humidity
00:00 +9°C° 0 mm 1 mps 711 mmHg 32%
01:00 +9°C° 0 mm 1 mps 711 mmHg 32%
02:00 +7°C° 0 mm 2 mps 711 mmHg 33%
03:00 +7°C° 0 mm 2 mps 711 mmHg 35%
04:00 +6°C° 0 mm 2 mps 711 mmHg 37%
05:00 +5°C° 0 mm 2 mps 711 mmHg 39%
06:00 +8°C° 0 mm 1 mps 711 mmHg 37%
07:00 +9°C° 0 mm 1 mps 712 mmHg 35%
08:00 +10°C° 0 mm 1 mps 712 mmHg 33%
09:00 +12°C° 0 mm 1 mps 712 mmHg 29%
10:00 +14°C° 0 mm 1 mps 712 mmHg 24%
11:00 +17°C° 0 mm 2 mps 712 mmHg 20%
12:00 +18°C° 0 mm 2 mps 711 mmHg 19%
13:00 +19°C° 0 mm 2 mps 711 mmHg 17%
14:00 +20°C° 0 mm 2 mps 710 mmHg 16%
15:00 +20°C° 0 mm 2 mps 709 mmHg 16%
16:00 +20°C° 0 mm 2 mps 709 mmHg 16%
17:00 +20°C° 0 mm 2 mps 708 mmHg 16%
18:00 +17°C° 0 mm 2 mps 708 mmHg 19%
19:00 +15°C° 0 mm 1 mps 708 mmHg 23%
20:00 +12°C° 0 mm 1 mps 708 mmHg 26%
21:00 +12°C° 0 mm 1 mps 708 mmHg 28%
22:00 +11°C° 0 mm 1 mps 708 mmHg 30%
23:00 +11°C° 0 mm 1 mps 708 mmHg 31%

Day after tomorrow, 14 August, Friday

Time Temperature Precipitation Wind Pressure Humidity
00:00 +11°C° 0 mm 1 mps 707 mmHg 33%
01:00 +9°C° 0 mm 2 mps 706 mmHg 35%
02:00 +9°C° 0 mm 2 mps 706 mmHg 37%
03:00 +8°C° 0 mm 2 mps 706 mmHg 41%
04:00 +8°C° 0 mm 2 mps 706 mmHg 45%
05:00 +7°C° 0 mm 2 mps 705 mmHg 50%
06:00 +9°C° 0 mm 2 mps 706 mmHg 44%
07:00 +10°C° 0 mm 2 mps 707 mmHg 39%
08:00 +12°C° 0 mm 2 mps 708 mmHg 33%
09:00 +15°C° 0 mm 2 mps 708 mmHg 29%
10:00 +17°C° 0 mm 3 mps 709 mmHg 25%
11:00 +20°C° 0 mm 4 mps 710 mmHg 22%
12:00 +21°C° 0 mm 4 mps 710 mmHg 19%
13:00 +22°C° 0 mm 5 mps 710 mmHg 17%
14:00 +23°C° 0 mm 6 mps 710 mmHg 14%
15:00 +22°C° 0 mm 6 mps 710 mmHg 16%
16:00 +21°C° 0 mm 6 mps 711 mmHg 18%
17:00 +21°C° 0 mm 6 mps 711 mmHg 19%
18:00 +17°C° 0 mm 5 mps 711 mmHg 25%
19:00 +15°C° 0 mm 4 mps 712 mmHg 30%
20:00 +13°C° 0 mm 3 mps 712 mmHg 36%
21:00 +13°C° 0 mm 2 mps 712 mmHg 38%
22:00 +12°C° 0 mm 2 mps 713 mmHg 40%
23:00 +10°C° 0 mm 2 mps 713 mmHg 42%

15 August, Saturday

Time Temperature Precipitation Wind Pressure Humidity
00:00 +9°C° 0 mm 2 mps 713 mmHg 43%
01:00 +9°C° 0 mm 2 mps 712 mmHg 44%
02:00 +8°C° 0 mm 2 mps 712 mmHg 45%
03:00 +8°C° 0 mm 2 mps 712 mmHg 48%
04:00 +7°C° 0 mm 2 mps 711 mmHg 51%
05:00 +7°C° 0 mm 1 mps 711 mmHg 54%
06:00 +9°C° 0 mm 1 mps 711 mmHg 50%
07:00 +10°C° 0 mm 1 mps 711 mmHg 46%
08:00 +11°C° 0 mm 1 mps 711 mmHg 41%
09:00 +13°C° 0 mm 1 mps 711 mmHg 37%
10:00 +15°C° 0 mm 1 mps 711 mmHg 33%
11:00 +17°C° 0 mm 2 mps 711 mmHg 29%
12:00 +18°C° 0 mm 2 mps 710 mmHg 27%
13:00 +19°C° 0 mm 2 mps 709 mmHg 25%
14:00 +20°C° 0 mm 2 mps 709 mmHg 23%
15:00 +20°C° 0 mm 2 mps 709 mmHg 23%
16:00 +20°C° 0 mm 3 mps 709 mmHg 23%
17:00 +20°C° 0 mm 3 mps 709 mmHg 24%
18:00 +18°C° 0 mm 3 mps 711 mmHg 28%
19:00 +16°C° 0 mm 3 mps 712 mmHg 32%
20:00 +13°C° 0 mm 3 mps 713 mmHg 37%
21:00 +13°C° 0 mm 3 mps 714 mmHg 38%
22:00 +12°C° 0 mm 4 mps 716 mmHg 39%
23:00 +12°C° 0 mm 4 mps 717 mmHg 40%

16 August, Sunday

Time Temperature Precipitation Wind Pressure Humidity
00:00 +10°C° 0 mm 3 mps 717 mmHg 40%
01:00 +9°C° 0 mm 2 mps 718 mmHg 40%
02:00 +8°C° 0 mm 2 mps 718 mmHg 39%
03:00 +8°C° 0 mm 1 mps 718 mmHg 41%
04:00 +7°C° 0 mm 1 mps 717 mmHg 42%
05:00 +6°C° 0 mm 1 mps 717 mmHg 43%
06:00 +7°C° 0 mm 1 mps 717 mmHg 39%
07:00 +8°C° 0 mm 1 mps 717 mmHg 36%
08:00 +9°C° 0 mm 1 mps 718 mmHg 33%
09:00 +11°C° 0 mm 1 mps 717 mmHg 31%
10:00 +12°C° 0 mm 1 mps 717 mmHg 28%
11:00 +14°C° 0 mm 2 mps 716 mmHg 25%
12:00 +15°C° 0 mm 2 mps 716 mmHg 25%
13:00 +16°C° 0 mm 2 mps 715 mmHg 25%
14:00 +17°C° 0 mm 2 mps 714 mmHg 24%
15:00 +17°C° 0 mm 2 mps 714 mmHg 25%
16:00 +17°C° 0 mm 2 mps 713 mmHg 26%
17:00 +17°C° 0 mm 2 mps 713 mmHg 26%
18:00 +15°C° 0 mm 2 mps 713 mmHg 31%
19:00 +13°C° 0 mm 1 mps 713 mmHg 35%
20:00 +11°C° 0 mm 1 mps 714 mmHg 40%
21:00 +10°C° 0 mm 1 mps 714 mmHg 42%
22:00 +10°C° 0 mm 1 mps 714 mmHg 44%
23:00 +8°C° 0 mm 0 mps 714 mmHg 46%

17 August, Monday

Time Temperature Precipitation Wind Pressure Humidity
00:00 +9°C° 0 mm 1 mps 714 mmHg 46%
01:00 +9°C° 0 mm 1 mps 713 mmHg 47%
02:00 +9°C° 0 mm 1 mps 713 mmHg 47%
03:00 +8°C° 0 mm 1 mps 713 mmHg 50%
04:00 +6°C° 0 mm 2 mps 712 mmHg 52%
05:00 +6°C° 0 mm 2 mps 712 mmHg 54%
06:00 +8°C° 0 mm 1 mps 712 mmHg 50%
07:00 +9°C° 0 mm 1 mps 712 mmHg 46%
08:00 +10°C° 0 mm 1 mps 712 mmHg 42%
09:00 +12°C° 0 mm 1 mps 712 mmHg 37%
10:00 +14°C° 0 mm 2 mps 712 mmHg 32%
11:00 +16°C° 0 mm 2 mps 712 mmHg 27%
12:00 +18°C° 0 mm 2 mps 711 mmHg 26%
13:00 +19°C° 0 mm 2 mps 710 mmHg 24%
14:00 +20°C° 0 mm 2 mps 710 mmHg 22%
15:00 +20°C° 0 mm 2 mps 709 mmHg 22%
16:00 +20°C° 0 mm 2 mps 709 mmHg 23%
17:00 +20°C° 0 mm 2 mps 709 mmHg 23%
18:00 +18°C° 0 mm 2 mps 710 mmHg 27%
19:00 +16°C° 0 mm 2 mps 710 mmHg 30%
20:00 +14°C° 0 mm 2 mps 711 mmHg 34%
21:00 +14°C° 0 mm 2 mps 711 mmHg 35%
22:00 +12°C° 0 mm 3 mps 712 mmHg 37%
23:00 +12°C° 0 mm 3 mps 712 mmHg 38%
Show more